Tiempo cada hora Mungeli

Hoy, 20 Octubre, Martes

Tiempo Temperatura Precipitaciones Viento Presión Humedad
00:00 +25°C° 0 mm 1 mps 731 mmHg 72%
01:00 +25°C° 0 mm 1 mps 730 mmHg 72%
02:00 +24°C° 0 mm 1 mps 730 mmHg 73%
03:00 +24°C° 0 mm 1 mps 730 mmHg 72%
04:00 +24°C° 0 mm 1 mps 730 mmHg 71%
05:00 +24°C° 0 mm 1 mps 730 mmHg 70%
06:00 +25°C° 0 mm 1 mps 731 mmHg 67%
07:00 +27°C° 0 mm 1 mps 731 mmHg 64%
08:00 +28°C° 0 mm 1 mps 732 mmHg 61%
09:00 +30°C° 0 mm 1 mps 732 mmHg 58%
10:00 +31°C° 0 mm 1 mps 732 mmHg 54%
11:00 +33°C° 0 mm 1 mps 732 mmHg 49%
12:00 +33°C° 0 mm 1 mps 731 mmHg 49%
13:00 +33°C° 0 mm 1 mps 731 mmHg 48%
14:00 +34°C° 0 mm 1 mps 730 mmHg 47%
15:00 +32°C° 0 mm 1 mps 730 mmHg 53%
16:00 +31°C° 0 mm 1 mps 730 mmHg 58%
17:00 +27°C° 0 mm 0 mps 729 mmHg 63%
18:00 +27°C° 0 mm 0 mps 730 mmHg 64%
19:00 +28°C° 0 mm 1 mps 731 mmHg 66%
20:00 +27°C° 0 mm 1 mps 732 mmHg 67%
21:00 +27°C° 0 mm 1 mps 732 mmHg 69%
22:00 +26°C° 0 mm 1 mps 732 mmHg 70%
23:00 +26°C° 0 mm 1 mps 731 mmHg 72%

Mañana, 21 Octubre, Miércoles

Tiempo Temperatura Precipitaciones Viento Presión Humedad
00:00 +26°C° 0 mm 1 mps 731 mmHg 73%
01:00 +25°C° 0 mm 1 mps 731 mmHg 75%
02:00 +25°C° 0 mm 1 mps 731 mmHg 76%
03:00 +25°C° 0 mm 1 mps 731 mmHg 77%
04:00 +25°C° 0 mm 1 mps 731 mmHg 78%
05:00 +24°C° 0 mm 1 mps 731 mmHg 79%
06:00 +26°C° 0 mm 2 mps 731 mmHg 75%
07:00 +27°C° 0 mm 2 mps 732 mmHg 70%
08:00 +29°C° 0 mm 2 mps 733 mmHg 66%
09:00 +30°C° 0 mm 2 mps 732 mmHg 60%
10:00 +31°C° 0 mm 2 mps 732 mmHg 54%
11:00 +34°C° 0 mm 2 mps 732 mmHg 48%
12:00 +34°C° 0 mm 2 mps 731 mmHg 45%
13:00 +35°C° 0 mm 2 mps 731 mmHg 43%
14:00 +35°C° 0 mm 2 mps 730 mmHg 40%
15:00 +32°C° 0 mm 2 mps 730 mmHg 45%
16:00 +30°C° 0 mm 2 mps 730 mmHg 50%
17:00 +28°C° 0 mm 2 mps 730 mmHg 55%
18:00 +27°C° 0 mm 2 mps 730 mmHg 56%
19:00 +26°C° 0 mm 2 mps 731 mmHg 56%
20:00 +26°C° 0 mm 2 mps 731 mmHg 56%
21:00 +25°C° 0 mm 2 mps 731 mmHg 55%
22:00 +24°C° 0 mm 2 mps 730 mmHg 53%
23:00 +24°C° 0 mm 2 mps 730 mmHg 52%

Pasado mañana, 22 Octubre, Jueves

Tiempo Temperatura Precipitaciones Viento Presión Humedad
00:00 +24°C° 0 mm 2 mps 730 mmHg 51%
01:00 +23°C° 0 mm 2 mps 730 mmHg 51%
02:00 +23°C° 0 mm 2 mps 730 mmHg 51%
03:00 +21°C° 0 mm 2 mps 730 mmHg 50%
04:00 +21°C° 0 mm 2 mps 729 mmHg 49%
05:00 +21°C° 0 mm 2 mps 729 mmHg 48%
06:00 +23°C° 0 mm 2 mps 730 mmHg 48%
07:00 +25°C° 0 mm 2 mps 731 mmHg 48%
08:00 +26°C° 0 mm 1 mps 731 mmHg 48%
09:00 +28°C° 0 mm 1 mps 731 mmHg 45%
10:00 +30°C° 0 mm 1 mps 731 mmHg 41%
11:00 +32°C° 0 mm 1 mps 731 mmHg 38%
12:00 +33°C° 0 mm 1 mps 730 mmHg 35%
13:00 +33°C° 0 mm 1 mps 730 mmHg 33%
14:00 +34°C° 0 mm 1 mps 729 mmHg 31%
15:00 +32°C° 0 mm 2 mps 729 mmHg 36%
16:00 +29°C° 0 mm 2 mps 729 mmHg 41%
17:00 +27°C° 0 mm 2 mps 729 mmHg 47%
18:00 +26°C° 0 mm 2 mps 730 mmHg 49%
19:00 +25°C° 0 mm 2 mps 730 mmHg 51%
20:00 +24°C° 0 mm 2 mps 731 mmHg 53%
21:00 +24°C° 0 mm 2 mps 731 mmHg 53%
22:00 +23°C° 0 mm 2 mps 731 mmHg 54%
23:00 +23°C° 0 mm 2 mps 731 mmHg 54%

23 Octubre, Viernes

Tiempo Temperatura Precipitaciones Viento Presión Humedad
00:00 +21°C° 0 mm 2 mps 730 mmHg 55%
01:00 +21°C° 0 mm 2 mps 730 mmHg 56%
02:00 +22°C° 0 mm 1 mps 730 mmHg 57%
03:00 +21°C° 0 mm 1 mps 730 mmHg 57%
04:00 +21°C° 0 mm 1 mps 730 mmHg 58%
05:00 +21°C° 0 mm 1 mps 730 mmHg 59%
06:00 +23°C° 0 mm 1 mps 730 mmHg 57%
07:00 +24°C° 0 mm 1 mps 731 mmHg 54%
08:00 +26°C° 0 mm 1 mps 732 mmHg 52%
09:00 +28°C° 0 mm 1 mps 732 mmHg 48%
10:00 +30°C° 0 mm 1 mps 732 mmHg 44%
11:00 +32°C° 0 mm 1 mps 732 mmHg 40%
12:00 +32°C° 0 mm 1 mps 731 mmHg 37%
13:00 +33°C° 0 mm 1 mps 731 mmHg 35%
14:00 +33°C° 0 mm 1 mps 730 mmHg 32%
15:00 +31°C° 0 mm 1 mps 730 mmHg 38%
16:00 +29°C° 0 mm 2 mps 730 mmHg 44%
17:00 +27°C° 0 mm 2 mps 730 mmHg 50%
18:00 +26°C° 0 mm 2 mps 731 mmHg 51%
19:00 +25°C° 0 mm 2 mps 731 mmHg 53%
20:00 +24°C° 0 mm 2 mps 732 mmHg 54%
21:00 +24°C° 0 mm 1 mps 732 mmHg 55%
22:00 +23°C° 0 mm 1 mps 732 mmHg 55%
23:00 +23°C° 0 mm 1 mps 732 mmHg 56%

24 Octubre, Sábado

Tiempo Temperatura Precipitaciones Viento Presión Humedad
00:00 +22°C° 0 mm 1 mps 731 mmHg 57%
01:00 +22°C° 0 mm 1 mps 731 mmHg 58%
02:00 +21°C° 0 mm 1 mps 731 mmHg 59%
03:00 +21°C° 0 mm 1 mps 731 mmHg 59%
04:00 +21°C° 0 mm 1 mps 731 mmHg 60%
05:00 +21°C° 0 mm 1 mps 731 mmHg 60%
06:00 +23°C° 0 mm 1 mps 732 mmHg 58%
07:00 +24°C° 0 mm 1 mps 732 mmHg 55%
08:00 +26°C° 0 mm 1 mps 733 mmHg 53%
09:00 +28°C° 0 mm 1 mps 733 mmHg 48%
10:00 +30°C° 0 mm 1 mps 733 mmHg 44%
11:00 +30°C° 0 mm 0 mps 733 mmHg 40%
12:00 +30°C° 0 mm 0 mps 732 mmHg 38%
13:00 +31°C° 0 mm 0 mps 732 mmHg 36%
14:00 +33°C° 0 mm 1 mps 731 mmHg 34%
15:00 +31°C° 0 mm 1 mps 731 mmHg 40%
16:00 +29°C° 0 mm 1 mps 731 mmHg 45%
17:00 +27°C° 0 mm 1 mps 731 mmHg 51%
18:00 +26°C° 0 mm 1 mps 732 mmHg 55%
19:00 +25°C° 0 mm 1 mps 732 mmHg 58%
20:00 +22°C° 0 mm 0 mps 733 mmHg 62%
21:00 +24°C° 0 mm 1 mps 733 mmHg 62%
22:00 +23°C° 0 mm 1 mps 733 mmHg 62%
23:00 +23°C° 0 mm 2 mps 733 mmHg 62%

25 Octubre, Domingo

Tiempo Temperatura Precipitaciones Viento Presión Humedad
00:00 +23°C° 0 mm 2 mps 733 mmHg 62%
01:00 +21°C° 0 mm 2 mps 733 mmHg 62%
02:00 +21°C° 0 mm 2 mps 732 mmHg 62%
03:00 +22°C° 0 mm 1 mps 733 mmHg 64%
04:00 +21°C° 0 mm 1 mps 733 mmHg 65%
05:00 +21°C° 0 mm 1 mps 733 mmHg 67%
06:00 +23°C° 0 mm 1 mps 733 mmHg 65%
07:00 +25°C° 0 mm 1 mps 734 mmHg 63%
08:00 +26°C° 0 mm 1 mps 734 mmHg 61%
09:00 +28°C° 0 mm 1 mps 734 mmHg 58%
10:00 +29°C° 0 mm 1 mps 734 mmHg 54%
11:00 +31°C° 0 mm 2 mps 734 mmHg 50%
12:00 +31°C° 0 mm 2 mps 733 mmHg 48%
13:00 +32°C° 0 mm 2 mps 733 mmHg 45%
14:00 +32°C° 0 mm 2 mps 732 mmHg 43%
15:00 +30°C° 0 mm 1 mps 732 mmHg 47%
16:00 +29°C° 0 mm 1 mps 732 mmHg 52%
17:00 +27°C° 0 mm 1 mps 732 mmHg 56%
18:00 +27°C° 0 mm 1 mps 733 mmHg 58%
19:00 +26°C° 0 mm 1 mps 733 mmHg 61%
20:00 +23°C° 0 mm 0 mps 733 mmHg 63%
21:00 +25°C° 0 mm 1 mps 733 mmHg 65%
22:00 +25°C° 0 mm 1 mps 734 mmHg 68%
23:00 +24°C° 0 mm 1 mps 734 mmHg 70%

26 Octubre, Lunes

Tiempo Temperatura Precipitaciones Viento Presión Humedad
00:00 +24°C° 0 mm 1 mps 733 mmHg 73%
01:00 +24°C° 0 mm 1 mps 733 mmHg 75%
02:00 +24°C° 0 mm 1 mps 733 mmHg 78%
03:00 +24°C° 0 mm 1 mps 733 mmHg 77%
04:00 +24°C° 0 mm 1 mps 733 mmHg 76%
05:00 +25°C° 0 mm 1 mps 733 mmHg 75%
06:00 +25°C° 0 mm 1 mps 734 mmHg 76%
07:00 +25°C° 0 mm 1 mps 734 mmHg 76%
08:00 +26°C° 0 mm 1 mps 735 mmHg 77%
09:00 +27°C° 0 mm 1 mps 734 mmHg 73%
10:00 +28°C° 0 mm 1 mps 734 mmHg 68%
11:00 +29°C° 0 mm 1 mps 734 mmHg 64%
12:00 +30°C° 0.1 mm 2 mps 733 mmHg 62%
13:00 +30°C° 0.1 mm 2 mps 733 mmHg 61%
14:00 +31°C° 0.1 mm 2 mps 732 mmHg 60%
15:00 +29°C° 0.2 mm 2 mps 732 mmHg 65%
16:00 +28°C° 0.2 mm 2 mps 732 mmHg 70%
17:00 +27°C° 0.2 mm 2 mps 732 mmHg 76%
18:00 +26°C° 0 mm 2 mps 733 mmHg 79%
19:00 +25°C° 0 mm 2 mps 733 mmHg 83%
20:00 +24°C° 0 mm 2 mps 733 mmHg 86%
21:00 +24°C° 0 mm 2 mps 733 mmHg 87%
22:00 +24°C° 0 mm 1 mps 733 mmHg 88%
23:00 +23°C° 0 mm 1 mps 733 mmHg 90%
Mostrar más

Necesitamos Su Consentimiento

Meteoprog y nuestros Proveedores de Servicios pueden almacenar y acceder a sus datos personales como cookies, identificadores de dispositivo u otras tecnologías similares de su dispositivo y procesar dichos datos para personalizar contenido y anuncios, además de ofrecer funciones de redes sociales y analizar el tráfico.

  • Almacenar y/o acceder a información en su dispositivo

    Se puede almacenar o acceder a cookies, identificadores de dispositivo u otra información de su dispositivo para los fines anteriormente indicados.

  • Anuncios y contenido personalizados, medición de anuncios y contenido, percepciones del público, y desarrollo de productos

    Los anuncios y el contenido pueden personalizarse en base a su perfil. Se pueden añadir más datos para personalizar mejor los anuncios y contenidos. Se puede medir el rendimiento de los anuncios y contenidos. Se puede obtener la percepción sobre el público que ha visto los anuncios y contenidos. Dichos datos pueden usarse para desarrollar o mejorar la experiencia del usuario, sistemas y software.

Al hacer clic en ‘Estoy De Acuerdo’ usted permitirá el uso de las cookies, identificadores de dispositivo, balizas web u otras tecnologías similares indicadas. Su configuración puede cambiarse desde el navegador de su dispositivo.

Para ciertos fines, los intereses legítimos pueden ser considerados por encima del consentimiento. Puede leer más sobre ello en nuestra Política de Privacidad y Cookies.